EW6750 Weather Reports


time (UTC)temp
C
wind
direction
speed
KPH
gust
KPH
rain 1hr
cm
rain 24hr
cm
rain mn
cm
humidity
%
barometer
mb
20260508090520 15 270 3.2 3.2 0.00 0.00 0.00 62 1017.1
20260508085518 14 354 3.2 4.8 0.00 0.00 0.00 63 1017.1
20260508084616 14 338 3.2 4.8 0.00 0.00 0.00 63 1017.0
20260508083630 14 0 3.2 6.4 0.00 0.00 0.00 67 1017.0
20260508082608 13 90 0.0 3.2 0.00 0.00 0.00 69 1017.0
20260508081604 13 0 1.6 3.2 0.00 0.00 0.00 69 1017.0
20260508080600 13 337 3.2 6.4 0.00 0.00 0.00 71 1017.0
20260508075556 13 315 0.0 3.2 0.00 0.00 0.00 71 1017.0
20260508074551 13 315 1.6 3.2 0.00 0.00 0.00 72 1016.9
20260508073549 12 0.0 0.0 0.00 0.00 0.00 73 1016.9
20260508072545 12 45 0.0 3.2 0.00 0.00 0.00 74 1016.7
20260508071542 12 53 1.6 3.2 0.00 0.00 0.00 78 1016.7
20260508070538 11 0.0 0.0 0.00 0.00 0.00 80 1016.6
20260508065535 11 0.0 0.0 0.00 0.00 0.00 80 1016.5
20260508064532 11 0.0 0.0 0.00 0.00 0.00 81 1016.2
20260508063527 11 0.0 0.0 0.00 0.00 0.00 81 1016.2
20260508062524 10 0.0 0.0 0.00 0.00 0.00 82 1016.2
20260508061521 10 0.0 0.0 0.00 0.00 0.00 84 1016.1
20260508060517 10 0.0 0.0 0.00 0.00 0.00 84 1016.0
20260508055635 10 0.0 0.0 0.00 0.00 0.00 85 1015.9
20260508054610 9 0.0 0.0 0.00 0.00 0.00 85 1016.1
20260508053607 9 0.0 0.0 0.00 0.00 0.00 85 1015.8
20260508052607 8 0.0 0.0 0.00 0.00 0.00 85 1016.0
20260508051559 8 0.0 0.0 0.00 0.00 0.00 85 1015.9
20260508050616 8 0.0 0.0 0.00 0.00 0.00 85 1015.9
20260508045554 8 0.0 0.0 0.00 0.00 0.00 85 1015.7
20260508044549 7 0.0 0.0 0.00 0.00 0.00 84 1015.8
20260508043551 7 0.0 0.0 0.00 0.00 0.00 84 1015.7
20260508042542 7 0.0 0.0 0.00 0.00 0.00 84 1015.7
20260508041539 7 0.0 0.0 0.00 0.00 0.00 84 1015.7
20260508040535 7 0.0 0.0 0.00 0.00 0.00 84 1015.7
20260508035533 7 0.0 0.0 0.00 0.00 0.00 83 1015.6
20260508034528 7 0.0 0.0 0.00 0.00 0.00 83 1015.6
20260508033524 7 0.0 0.0 0.00 0.00 0.00 83 1015.5
20260508032521 7 0.0 0.0 0.00 0.00 0.00 83 1015.5
20260508031517 7 0.0 0.0 0.00 0.00 0.00 82 1015.5
20260508030614 7 0.0 0.0 0.00 0.00 0.00 82 1015.5
20260508025610 7 0.0 0.0 0.00 0.00 0.00 81 1015.5
20260508024609 7 0.0 0.0 0.00 0.00 0.00 81 1015.5
20260508023604 7 0.0 0.0 0.00 0.00 0.00 80 1015.5
20260508022600 7 0.0 0.0 0.00 0.00 0.00 80 1015.5
20260508021557 8 0.0 0.0 0.00 0.00 0.00 80 1015.6
20260508020638 8 0.0 0.0 0.00 0.00 0.00 79 1015.5
20260508015550 8 0.0 0.0 0.00 0.00 0.00 77 1015.4
20260508014545 8 0.0 0.0 0.00 0.00 0.00 77 1015.5
20260508013541 8 0.0 0.0 0.00 0.00 0.00 76 1015.4
20260508012538 8 0.0 0.0 0.00 0.00 0.00 74 1015.4
20260508011534 8 0.0 0.0 0.00 0.00 0.00 73 1015.5
20260508010531 9 0.0 0.0 0.00 0.00 0.00 73 1015.6
20260508005529 10 0.0 0.0 0.00 0.00 0.00 73 1015.6
20260508004524 10 0.0 1.6 0.00 0.00 0.00 72 1015.7
20260508003520 10 0.0 0.0 0.00 0.00 0.00 71 1015.6
20260508002520 10 0.0 0.0 0.00 0.00 0.00 71 1015.6
20260508001612 11 0.0 0.0 0.00 0.00 0.00 71 1015.6
20260508000609 11 0.0 0.0 0.00 0.00 0.00 71 1015.6
20260507235605 11 0.0 0.0 0.00 0.00 0.00 71 1015.6
20260507234602 11 0.0 0.0 0.00 0.00 0.00 72 1015.5
20260507233600 11 0.0 1.6 0.00 0.00 0.00 72 1015.5
20260507232555 11 0.0 0.0 0.00 0.00 0.00 72 1015.6
20260507231552 11 0.0 1.6 0.00 0.00 0.00 72 1015.5
20260507230630 11 0.0 1.6 0.00 0.00 0.00 72 1015.5
20260507225545 11 45 0.0 3.2 0.00 0.00 0.00 72 1015.6
20260507224543 11 0 0.0 3.2 0.00 0.00 0.00 72 1015.5
20260507223540 12 0.0 0.0 0.00 0.00 0.00 71 1015.4
20260507222556 12 0.0 1.6 0.00 0.00 0.00 71 1015.3
20260507221532 12 0.0 1.6 0.00 0.00 0.00 71 1015.4
20260507220546 12 20 1.6 3.2 0.00 0.00 0.00 71 1015.4
20260507215523 12 0.0 1.6 0.00 0.00 0.00 71 1015.4
20260507214520 12 0.0 1.6 0.00 0.00 0.00 71 1015.4
20260507213517 12 0.0 1.6 0.00 0.00 0.00 71 1015.4
20260507212612 12 0.0 1.6 0.00 0.00 0.00 71 1015.3
20260507211608 12 0 0.0 3.2 0.00 0.00 0.00 71 1015.4
20260507210607 12 0.0 0.0 0.00 0.00 0.00 71 1015.3
20260507205602 12 0.0 1.6 0.00 0.00 0.00 68 1015.2
20260507204600 12 0.0 1.6 0.00 0.00 0.00 65 1015.1
20260507203555 12 75 0.0 3.2 0.00 0.00 0.00 65 1015.1
20260507202553 12 23 0.0 3.2 0.00 0.00 0.00 64 1015.1
20260507201611 13 346 4.8 8.0 0.00 0.00 0.00 61 1015.0
20260507200544 13 340 3.2 4.8 0.00 0.00 0.00 60 1015.0
20260507195541 13 284 4.8 12.9 0.00 0.00 0.00 60 1015.0
20260507194540 13 303 6.4 11.3 0.00 0.00 0.00 58 1014.9
20260507193535 13 340 4.8 6.4 0.00 0.00 0.00 54 1014.7
20260507192530 13 327 3.2 9.7 0.00 0.00 0.00 53 1014.7
20260507191527 14 282 6.4 12.9 0.00 0.00 0.00 53 1014.6
20260507190525 14 0 3.2 3.2 0.00 0.00 0.00 52 1014.5
20260507185520 14 25 1.6 6.4 0.00 0.00 0.00 52 1014.4
20260507184518 14 6 1.6 4.8 0.00 0.00 0.00 51 1014.3
20260507183613 14 90 0.0 3.2 0.00 0.00 0.00 51 1014.3
20260507182610 14 203 1.6 6.4 0.00 0.00 0.00 50 1014.3
20260507181608 14 13 1.6 6.4 0.00 0.00 0.00 50 1014.1
20260507180643 15 53 1.6 3.2 0.00 0.00 0.00 50 1014.1
20260507175559 15 344 3.2 6.4 0.00 0.00 0.00 49 1014.1
20260507174557 15 295 3.2 6.4 0.00 0.00 0.00 48 1014.1
20260507173552 15 314 1.6 6.4 0.00 0.00 0.00 47 1014.0
20260507172548 15 308 4.8 9.7 0.00 0.00 0.00 46 1014.1
20260507171546 15 341 3.2 8.0 0.00 0.00 0.00 45 1014.1
20260507170542 15 293 3.2 4.8 0.00 0.00 0.00 44 1014.2
20260507165538 15 291 4.8 9.7 0.00 0.00 0.00 44 1014.2
20260507164555 16 335 4.8 12.9 0.00 0.00 0.00 45 1014.2
20260507163552 16 353 4.8 6.4 0.00 0.00 0.00 44 1014.2
20260507162526 16 343 4.8 9.7 0.00 0.00 0.00 45 1014.2
20260507161524 15 342 6.4 12.9 0.00 0.00 0.00 45 1014.1
20260507160519 15 323 4.8 8.0 0.00 0.00 0.00 45 1014.2
20260507155519 16 340 3.2 8.0 0.00 0.00 0.00 46 1014.2
20260507154612 16 290 4.8 12.9 0.00 0.00 0.00 45 1014.2
20260507153609 16 322 4.8 11.3 0.00 0.00 0.00 47 1014.4
20260507152625 16 329 6.4 11.3 0.00 0.00 0.00 46 1014.4
20260507150558 16 315 6.4 8.0 0.00 0.00 0.00 49 1014.4
20260507145616 16 349 4.8 8.0 0.00 0.00 0.00 49 1014.5
20260507144613 16 293 6.4 12.9 0.00 0.00 0.00 49 1014.6
20260507143549 16 2 4.8 8.0 0.00 0.00 0.00 49 1014.9
20260507142546 15 306 4.8 6.4 0.00 0.00 0.00 47 1015.0
20260507141541 16 313 4.8 9.7 0.00 0.00 0.00 49 1015.1
20260507140537 15 301 6.4 9.7 0.00 0.00 0.00 48 1015.2
20260507135534 16 336 4.8 8.0 0.00 0.00 0.00 50 1015.2
20260507134550 16 322 1.6 4.8 0.00 0.00 0.00 50 1015.4
20260507133550 15 292 4.8 6.4 0.00 0.00 0.00 50 1015.3
20260507132523 16 51 3.2 4.8 0.00 0.00 0.00 49 1015.5
20260507131520 15 282 4.8 11.3 0.00 0.00 0.00 48 1015.4
20260507130537 15 45 4.8 6.4 0.00 0.00 0.00 46 1015.4
20260507125635 15 306 8.0 12.9 0.00 0.00 0.00 45 1015.4
20260507124610 15 273 4.8 11.3 0.00 0.00 0.00 46 1015.4
20260507123608 15 0 1.6 4.8 0.00 0.00 0.00 51 1015.5
20260507122602 15 0 1.6 6.4 0.00 0.00 0.00 52 1015.6
20260507121620 14 338 4.8 6.4 0.00 0.00 0.00 52 1015.6
20260507120738 14 344 4.8 8.0 0.00 0.00 0.00 50 1015.7
20260507115552 13 10 3.2 6.4 0.00 0.00 0.00 51 1015.6
20260507114548 13 277 6.4 11.3 0.00 0.00 0.00 50 1015.8
20260507113546 13 63 1.6 4.8 0.00 0.00 0.00 52 1015.7
20260507112544 13 356 3.2 6.4 0.00 0.00 0.00 57 1015.7
20260507111539 13 359 3.2 8.0 0.00 0.00 0.00 62 1015.7
20260507110534 12 45 3.2 4.8 0.00 0.00 0.00 63 1015.9
20260507105531 12 353 1.6 3.2 0.00 0.00 0.00 65 1016.0
20260507104529 12 360 1.6 4.8 0.00 0.00 0.00 70 1016.0
20260507103525 11 5 1.6 3.2 0.00 0.00 0.00 70 1016.1
20260507102542 11 327 1.6 3.2 0.00 0.00 0.00 71 1016.1
20260507101517 11 0 0.0 3.2 0.00 0.00 0.00 71 1015.9
20260507100614 11 338 1.6 3.2 0.00 0.00 0.00 72 1016.0
20260507095610 11 0 0.0 3.2 0.00 0.00 0.00 72 1016.1
20260507094607 11 315 0.0 4.8 0.00 0.00 0.00 73 1016.1
20260507093625 10 358 1.6 3.2 0.00 0.00 0.00 73 1016.1
20260507092601 10 334 3.2 4.8 0.00 0.00 0.00 75 1016.1
20260507091557 10 0.0 1.6 0.00 0.00 0.00 76 1016.1